Regional Weather Roundup
Issued by NWS

Home | Current Version | Previous Version | Graphics & Text | Print | Product List | Glossary On
Versions: 1 2 3 4 5 6 7 8 9 10 11 12 13 14 15 16 17 18 19 20 21 22 23 24 25 26 27 28 29 30 31 32 33 34 35 36 37 38 39 40 41 42 43 44 45 46 47 48 49 50
000
ASUS45 KCYS 250410
RWRWY

WYOMING REGIONAL WEATHER ROUNDUP
NATIONAL WEATHER SERVICE CHEYENNE WY
900 PM MST FRI FEB 24 2017

NOTE:  "FAIR" INDICATES FEW OR NO CLOUDS BELOW 12,000 FEET
WITH NO SIGNIFICANT WEATHER AND/OR OBSTRUCTIONS TO VISIBILITY.

WYZ001-250500-
YELLOWSTONE NATIONAL PARK

CITY           SKY/WX    TMP DP  RH WIND       PRES   REMARKS
LK YELLOWSTONE   N/A      6   4  91 CALM      29.95R
W YELLOWSTONE  NOT AVBL

$$
WYZ002>013-054>058-071-098>099-250500-
NORTHERN WYOMING

CITY           SKY/WX    TMP DP  RH WIND       PRES   REMARKS
JACKSON        CLEAR     12   9  85 S7        30.01R WCI   2
CODY           LGT SNOW  22  19  89 N6        29.99S FOG     WCI  14
GREYBULL       CLOUDY    28  22  78 N7        30.01R WCI  21
WORLAND        MOCLDY    22  18  85 S8        30.00R WCI  12
SHERIDAN       LGT SNOW  26  22  84 W12       30.00R FOG     WCI  16
BUFFALO        CLOUDY    21  13  71 W5        29.95S WCI  15
GILLETTE       CLOUDY    19  14  81 S13       29.97S WCI   6
HULETT         CLOUDY    23  18  80 MISG      29.99S
NEWCASTLE      FAIR      12  10  92 CALM      30.03S

$$
WYZ014>020-022>026-101>103-250500-
CENTRAL WYOMING

CITY           SKY/WX    TMP DP  RH WIND       PRES   REMARKS
BIG PINEY      CLOUDY     6  -1  73 N10       29.98R WCI  -9
PINEDALE       FAIR       0  -6  78 NW7       29.99R WCI -13
DUBOIS         FAIR      10   1  67 NW17      29.91R WCI  -7
LANDER         FAIR      11   5  77 SW5       29.96R WCI   3
RIVERTON       FAIR      12   9  87 W7        29.97R WCI   1
CASPER         MOCLDY    11   7  84 SW9       29.96R WCI  -2
DOUGLAS        CLOUDY     6   2  83 SE3       29.99S

$$
WYZ021-027>030-104>119-250500-
SOUTHERN WYOMING

CITY           SKY/WX    TMP DP  RH WIND       PRES   REMARKS
EVANSTON       FAIR       9   2  73 SW5       30.02S WCI   1
FORT BRIDGER   FAIR       8   3  80 W14       30.05R WCI  -8
ROCK SPRINGS   FAIR      10   4  76 W16       30.00R WCI  -7
DIXON            N/A      3  -2  81 CALM      30.06R
RAWLINS        FAIR      10   3  73 SW17      29.95R WCI  -8
SARATOGA       FAIR       9   3  78 SW10      29.97R WCI  -6
LARAMIE        FAIR       1  -2  87 SE3       29.91R
CHEYENNE       FAIR       6   1  80 W8        29.97R WCI  -7
TORRINGTON     FOG        8   7  95 CALM      30.03S VSB 3/4
PINE BLUFFS    FAIR       9   5  85 W8        30.02S WCI  -4

$$



USA.gov is the U.S. government's official web portal to all federal, state and local government web resources and services.